Probability
0 0 0 0 3 3 0 0 0 0 0 0 0 0 0 0 0 0 0 0 13 10 10 13 6 3 3 10 10 10 10 13 13 16 19 16 13 10 13 16 10 10 13
0 0 3 3 3 3 3 3 3 0 3 3 3 0 0 0 0 0 0 0 10 10 6 0 0 3 3 0 3 13 10 13 13 13 16 19 16 13 16 23 16 16 19
0 3 3 3 3 3 3 3 3 3 3 3 3 0 0 0 0 0 0 0 3 3 10 3 0 3 3 3 3 6 10 13 6 6 13 16 16 19 19 16 16 16 16
3 3 3 3 3 3 3 3 0 3 3 3 3 3 0 0 0 0 0 0 0 3 3 3 0 0 0 0 0 3 10 10 6 6 10 13 13 16 19 19 19 13 16
0 3 3 3 3 3 3 3 0 0 0 0 0 3 3 0 0 0 0 3 0 0 3 3 3 3 3 3 3 3 3 3 3 10 6 6 13 13 16 16 13 10 13
0 3 3 3 3 3 3 0 0 0 0 0 0 0 0 0 0 0 0 0 0 0 0 0 0 0 0 3 6 3 3 3 3 3 3 6 6 6 10 10 16 13 10
0 6 3 3 3 3 0 0 0 0 0 0 0 0 0 0 0 0 0 0 0 0 0 0 0 0 0 0 0 6 3 3 3 6 3 3 3 0 3 3 6 10 10
0 6 3 3 3 3 0 0 0 0 0 0 0 0 0 0 0 0 0 0 0 0 0 0 0 0 0 0 0 0 0 6 0 6 0 3 3 3 0 3 6 6 6
0 6 3 3 3 3 0 0 0 0 0 0 0 0 0 0 0 0 0 0 0 0 0 0 0 0 0 0 0 0 0 0 3 0 0 3 6 6 6 3 10 10 10
0 0 3 3 3 3 0 0 0 0 0 0 0 0 0 0 0 0 0 0 0 0 0 0 0 0 0 0 0 0 0 0 0 0 0 0 6 3 3 6 3 10 6
0 0 3 3 3 3 0 0 0 0 0 0 0 0 0 0 0 0 0 0 0 0 0 0 0 0 0 0 0 0 0 0 0 0 0 3 0 0 3 0 3 6 10
3 3 0 3 3 3 0 0 0 0 0 3 3 0 0 0 0 0 0 0 0 0 0 0 0 0 0 0 0 0 0 0 0 0 0 3 3 3 0 0 0 3 6
0 0 0 6 3 3 0 0 3 3 3 3 3 3 0 0 0 0 0 0 0 0 0 0 0 0 0 0 0 0 0 0 0 0 0 3 3 3 0 3 0 0 3
0 0 0 3 3 3 0 0 0 3 0 0 0 0 0 0 0 0 0 0 0 0 0 0 0 0 0 0 0 0 0 0 0 0 0 0 0 0 0 0 3 3 6
3 3 3 3 3 3 3 3 3 0 0 0 0 0 0 0 0 0 0 0 0 0 0 0 0 0 0 0 0 0 0 0 0 0 0 0 0 0 0 0 0 0 3
3 3 3 3 3 6 3 0 0 0 0 0 3 3 0 0 0 0 0 0 0 0 0 0 0 0 0 0 0 0 0 0 0 0 0 0 0 0 0 0 0 0 0
3 3 3 3 0 0 0 0 0 0 0 0 0 0 0 0 0 0 0 0 0 0 0 0 0 0 0 0 0 0 0 0 0 0 0 0 0 0 0 0 0 0 0
0 0 0 0 0 0 0 0 0 0 0 0 0 0 0 0 0 0 0 0 0 0 0 0 0 0 0 0 0 0 0 0 0 0 0 0 0 0 0 0 0 0 0
0 0 0 0 0 0 0 0 0 0 0 0 0 0 0 0 0 0 0 0 0 0 0 0 0 0 0 0 0 0 0 0 0 0 0 0 0 0 0 0 0 0 0
0 0 0 0 0 0 0 0 0 0 0 0 0 0 0 0 0 0 0 0 0 0 0 0 0 0 0 0 0 0 0 0 0 0 0 0 0 0 0 0 0 0 0
0 0 0 0 0 0 0 0 0 0 0 0 0 0 0 0 0 0 0 0 0 0 0 0 0 0 0 0 0 0 0 0 0 0 0 0 0 0 0 0 0 0 0
3 0 0 0 0 0 0 0 0 0 0 0 0 0 0 0 0 0 0 0 0 0 0 0 0 0 0 0 0 0 0 0 0 0 0 0 0 0 0 0 0 0 0
3 0 0 0 3 0 0 0 0 0 0 0 0 0 0 0 0 0 0 0 0 0 0 0 0 0 0 0 0 0 0 0 0 0 0 0 0 0 0 0 0 0 0
3 3 3 3 3 0 0 0 0 0 0 0 0 3 0 0 0 0 0 0 0 0 0 0 0 0 0 0 0 0 0 0 0 0 0 0 0 0 0 0 0 0 0
0 3 3 3 3 3 0 0 0 0 0 0 0 0 0 0 0 0 0 0 0 0 0 0 0 0 0 0 0 0 0 0 0 0 0 0 0 0 0 0 0 0 0
3 3 3 3 3 3 0 0 0 0 0 0 0 0 0 0 0 0 0 0 0 0 0 0 0 0 0 0 0 0 0 0 0 0 0 0 0 0 0 0 0 0 0
Height
5871 5871 5870 5870 5869 5869 5868 5867 5867 5866 5866 5866 5866 5865 5865 5864 5864 5863 5863 5862 5862 5861 5861 5860 5860 5859 5859 5859 5859 5859 5858 5858 5858 5857 5857 5857 5857 5857 5857 5857 5857 5858 5858
5869 5868 5868 5867 5867 5866 5866 5865 5865 5864 5864 5863 5863 5863 5863 5862 5862 5861 5861 5860 5860 5859 5859 5858 5858 5858 5857 5857 5857 5856 5856 5855 5855 5855 5854 5854 5854 5854 5854 5854 5855 5855 5855
5866 5866 5866 5865 5864 5864 5863 5863 5862 5862 5861 5861 5861 5860 5860 5860 5859 5859 5858 5858 5858 5857 5857 5856 5856 5856 5855 5855 5855 5854 5854 5853 5853 5852 5852 5851 5851 5851 5851 5851 5851 5852 5852
5864 5864 5863 5863 5862 5861 5861 5860 5860 5859 5859 5859 5858 5858 5858 5857 5857 5856 5856 5856 5855 5855 5855 5854 5854 5854 5853 5853 5852 5852 5851 5851 5851 5850 5850 5849 5848 5848 5846 5845 5847 5848 5849
5861 5861 5860 5860 5860 5859 5858 5858 5857 5857 5857 5856 5856 5855 5855 5855 5854 5854 5853 5853 5853 5853 5852 5852 5852 5851 5851 5851 5850 5850 5849 5849 5848 5847 5847 5846 5845 5844 5842 5840 5842 5845 5846
5858 5858 5858 5857 5857 5856 5856 5855 5855 5854 5854 5854 5853 5853 5852 5852 5852 5851 5851 5850 5850 5850 5850 5849 5849 5849 5849 5848 5848 5847 5847 5846 5845 5845 5844 5843 5843 5842 5840 5839 5841 5842 5843
5855 5855 5855 5854 5854 5853 5853 5852 5852 5852 5852 5851 5851 5850 5850 5849 5849 5848 5848 5847 5847 5847 5847 5847 5847 5846 5846 5846 5845 5844 5844 5843 5843 5842 5841 5840 5840 5839 5839 5839 5839 5839 5840
5852 5852 5852 5851 5851 5850 5850 5850 5849 5849 5849 5849 5848 5848 5847 5847 5846 5846 5845 5845 5844 5844 5844 5844 5844 5843 5843 5843 5842 5842 5841 5840 5840 5839 5839 5838 5837 5837 5836 5836 5836 5836 5836
5849 5849 5848 5848 5848 5848 5847 5847 5847 5847 5846 5846 5845 5845 5845 5844 5843 5843 5842 5842 5842 5841 5841 5840 5840 5840 5840 5839 5839 5838 5838 5837 5837 5836 5835 5835 5834 5834 5833 5833 5833 5833 5833
5846 5846 5845 5845 5845 5845 5845 5844 5844 5844 5844 5843 5843 5842 5842 5841 5841 5840 5839 5839 5838 5838 5838 5837 5837 5837 5836 5836 5836 5835 5835 5834 5833 5833 5832 5831 5831 5831 5830 5830 5829 5829 5829
5843 5842 5842 5842 5842 5842 5842 5841 5841 5841 5841 5840 5840 5839 5839 5838 5838 5837 5836 5836 5835 5835 5834 5834 5833 5833 5833 5833 5832 5832 5831 5830 5830 5829 5828 5828 5828 5827 5827 5826 5826 5825 5825
5840 5839 5839 5839 5839 5839 5838 5838 5838 5838 5837 5837 5837 5836 5836 5835 5834 5834 5833 5833 5832 5831 5831 5830 5830 5829 5829 5829 5828 5828 5827 5827 5826 5826 5825 5825 5824 5823 5823 5822 5822 5821 5821
5837 5836 5836 5836 5836 5835 5835 5835 5835 5835 5834 5834 5833 5833 5833 5832 5831 5830 5830 5829 5828 5828 5827 5827 5826 5826 5825 5825 5825 5824 5824 5823 5823 5822 5822 5821 5820 5820 5819 5818 5818 5817 5816
5833 5833 5833 5832 5832 5832 5832 5832 5832 5831 5831 5831 5830 5830 5829 5828 5828 5827 5826 5826 5825 5825 5824 5823 5823 5822 5822 5821 5821 5820 5820 5819 5819 5818 5817 5817 5816 5816 5815 5814 5813 5813 5812
5829 5829 5829 5829 5828 5828 5828 5828 5827 5827 5827 5827 5826 5826 5825 5825 5824 5823 5822 5822 5822 5821 5820 5819 5819 5818 5817 5817 5816 5816 5815 5815 5814 5814 5813 5812 5812 5811 5811 5810 5809 5808 5808
5825 5825 5825 5825 5824 5824 5824 5824 5823 5823 5823 5823 5822 5822 5821 5821 5820 5819 5818 5818 5817 5817 5816 5815 5814 5813 5813 5812 5812 5811 5811 5810 5810 5810 5809 5808 5807 5807 5806 5805 5805 5804 5804
5820 5820 5820 5820 5820 5820 5819 5819 5819 5819 5819 5818 5818 5817 5817 5816 5816 5815 5814 5814 5813 5812 5812 5811 5809 5809 5808 5808 5807 5807 5807 5806 5806 5805 5805 5804 5803 5802 5801 5801 5800 5799 5799
5815 5815 5815 5815 5815 5815 5815 5815 5815 5814 5814 5813 5813 5813 5812 5812 5811 5811 5810 5810 5809 5808 5807 5806 5805 5804 5804 5803 5803 5802 5802 5802 5801 5801 5800 5799 5798 5797 5797 5796 5795 5794 5793
5810 5810 5810 5810 5810 5810 5810 5810 5810 5809 5809 5808 5808 5808 5807 5807 5806 5806 5805 5805 5804 5803 5802 5801 5800 5800 5799 5799 5798 5798 5797 5797 5796 5796 5795 5794 5793 5792 5792 5791 5790 5789 5788
5805 5805 5805 5805 5805 5805 5805 5805 5804 5804 5804 5803 5803 5803 5802 5802 5801 5801 5800 5800 5799 5799 5798 5797 5796 5795 5795 5794 5793 5793 5793 5792 5791 5791 5790 5789 5788 5787 5786 5785 5784 5784 5783
5800 5800 5800 5800 5800 5800 5800 5799 5799 5799 5799 5798 5798 5798 5797 5796 5796 5795 5795 5794 5794 5793 5793 5792 5792 5791 5790 5790 5789 5788 5788 5787 5786 5785 5785 5784 5783 5782 5781 5780 5779 5778 5778
5795 5795 5795 5795 5794 5794 5794 5794 5794 5793 5793 5793 5793 5792 5792 5791 5790 5790 5789 5789 5789 5788 5788 5787 5787 5786 5785 5785 5784 5783 5782 5782 5781 5781 5779 5778 5777 5776 5775 5774 5773 5773 5772
5789 5789 5789 5788 5788 5788 5788 5788 5788 5787 5787 5787 5787 5786 5786 5785 5785 5784 5784 5784 5783 5783 5783 5782 5782 5781 5781 5780 5779 5778 5777 5776 5775 5775 5774 5773 5772 5771 5769 5768 5768 5767 5766
5783 5783 5783 5783 5783 5782 5782 5782 5781 5781 5781 5781 5781 5780 5780 5780 5779 5778 5778 5778 5777 5777 5777 5777 5776 5776 5775 5774 5773 5773 5771 5770 5769 5769 5768 5767 5766 5765 5763 5762 5762 5761 5760
5777 5776 5776 5776 5776 5776 5776 5775 5775 5775 5775 5775 5774 5774 5774 5773 5773 5772 5772 5772 5771 5771 5771 5770 5770 5770 5769 5768 5767 5767 5766 5765 5764 5763 5761 5760 5759 5759 5758 5757 5756 5755 5754
5770 5770 5770 5770 5770 5770 5770 5769 5769 5769 5768 5768 5768 5767 5767 5767 5766 5766 5766 5766 5765 5765 5765 5764 5764 5764 5763 5762 5761 5760 5760 5758 5757 5756 5755 5754 5753 5752 5752 5751 5749 5748 5748
Wind_Speed
13 13 12 13 13 12 12 11 11 11 11 11 11 11 11 11 10 10 10 10 10 10 10 10 9 9 9 10 10 10 10 11 11 11 11 11 11 12 12 12 11 11 11
13 13 13 13 13 12 12 11 10 11 11 11 11 10 10 10 10 10 10 11 11 11 10 10 10 10 9 10 10 10 10 11 10 11 11 11 12 12 13 13 12 12 12
13 13 13 13 13 12 12 12 12 12 11 11 10 10 10 10 11 11 11 11 11 12 11 11 10 10 10 10 10 10 10 10 10 11 10 11 11 12 13 13 13 13 13
14 14 14 13 13 13 12 12 11 11 11 11 10 11 11 11 11 11 11 11 11 11 11 11 10 10 10 10 10 10 10 11 11 11 11 11 12 13 14 14 14 13 13
14 14 14 13 13 13 12 12 12 12 11 11 11 12 11 11 12 11 11 11 11 11 11 11 11 11 11 11 11 11 11 11 12 11 11 12 12 12 13 13 13 13 14
13 13 14 14 13 13 12 12 12 12 11 11 12 12 13 12 12 12 12 12 12 12 12 12 12 12 12 12 12 11 12 12 12 12 12 12 12 12 12 12 12 13 13
14 13 13 14 13 13 12 12 12 12 12 12 13 13 13 13 13 13 13 13 13 12 12 12 12 12 12 12 12 13 13 13 13 13 13 13 13 12 12 12 13 13 14
13 13 14 14 14 13 12 12 12 12 12 12 12 13 13 13 13 13 13 12 12 12 12 12 12 12 12 12 13 13 13 14 14 14 13 13 13 13 13 13 13 13 14
12 13 14 14 14 13 12 12 12 12 12 12 12 12 12 12 12 12 13 13 13 12 12 12 12 12 12 13 13 13 14 14 14 14 14 14 14 13 13 13 14 14 14
13 14 14 13 13 13 13 12 12 12 12 11 12 12 12 12 13 13 13 13 13 13 13 13 13 13 13 13 13 13 14 14 14 14 14 14 14 14 14 14 15 15 16
14 14 13 13 13 13 13 13 12 12 12 12 12 12 13 13 13 13 13 13 13 13 13 13 14 13 13 13 14 13 13 14 13 13 14 14 14 14 14 14 14 15 16
14 13 13 13 13 13 12 12 13 13 13 13 13 13 14 14 13 13 13 14 14 14 14 13 14 14 14 14 14 14 14 14 13 13 13 13 14 14 15 15 15 15 15
15 14 14 14 13 13 13 13 13 13 13 13 13 14 15 15 13 14 14 14 14 13 13 14 14 15 15 15 15 15 15 15 14 14 14 14 15 15 15 15 15 15 15
16 15 15 15 14 14 13 13 14 14 14 14 15 15 15 15 15 15 15 14 13 14 14 14 14 14 15 15 16 16 16 15 15 15 15 15 15 15 15 15 15 15 15
16 16 15 15 15 15 15 14 14 15 15 15 16 15 15 15 15 14 14 14 14 14 15 15 15 15 15 15 16 16 16 15 15 16 16 16 16 16 16 16 16 16 16
17 17 16 16 16 16 16 15 16 16 16 16 16 16 16 16 15 14 14 14 15 15 15 16 16 16 16 16 17 16 16 16 16 16 16 16 17 17 17 17 17 17 16
18 18 18 18 18 17 17 16 16 17 17 17 17 17 17 16 16 15 15 15 15 16 16 16 17 16 16 17 17 16 16 16 16 17 16 17 17 17 17 17 17 17 17
18 19 19 19 18 18 17 18 18 18 18 17 17 18 17 17 17 16 16 16 16 16 16 17 17 16 17 16 16 17 17 17 17 17 17 17 17 17 17 17 17 17 17
19 19 19 19 18 18 18 19 18 18 18 18 18 18 18 18 18 18 17 17 17 17 17 17 16 16 16 17 16 17 17 17 17 17 17 17 17 17 17 17 17 18 17
19 20 20 19 19 19 19 19 19 18 19 19 20 19 20 19 19 19 18 17 17 17 17 17 17 17 16 17 17 17 17 17 17 18 17 18 18 19 18 18 18 18 18
20 20 20 20 21 20 20 20 20 20 19 19 20 20 20 20 19 19 18 18 18 17 17 17 17 17 17 17 17 17 17 18 18 18 18 18 19 20 19 19 19 19 19
21 21 21 21 21 21 20 21 21 21 20 20 20 20 20 20 20 19 18 18 18 18 18 18 17 17 17 17 17 17 18 18 18 18 19 19 19 19 19 19 19 19 19
22 22 22 21 21 21 21 22 22 22 21 21 20 19 19 19 20 19 19 20 19 19 19 18 17 18 18 18 18 18 18 19 18 19 19 19 20 20 20 19 19 19 19
22 22 22 22 22 22 23 23 22 22 22 21 21 21 20 20 20 20 20 20 19 19 19 19 18 18 19 19 19 19 19 19 20 20 20 20 20 21 21 20 20 20 20
22 23 23 22 22 22 22 22 23 22 21 21 21 21 21 21 21 21 21 20 20 20 20 20 20 20 20 20 20 20 20 20 20 20 20 20 20 20 20 20 20 20 21
23 22 22 22 22 22 23 23 23 22 22 22 22 22 22 21 21 21 21 20 20 20 20 20 20 20 20 21 21 21 21 21 21 21 21 21 21 21 21 21 21 22 22
Wind_Direction
295 291 293 295 295 297 298 294 292 291 291 287 284 285 285 284 284 289 294 295 297 295 292 294 291 283 283 287 288 288 288 290 288 286 282 278 276 273 272 272 270 270 270
295 293 294 297 294 294 295 294 289 291 293 291 286 283 285 285 286 290 292 292 292 295 298 295 296 299 294 292 293 292 293 293 291 290 287 283 280 277 275 273 271 270 270
293 291 295 297 298 296 294 293 290 289 291 291 286 287 287 286 286 287 289 291 290 290 294 291 288 293 295 296 299 301 297 296 294 290 288 285 282 280 276 273 269 267 269
291 290 292 294 296 296 294 291 290 290 290 290 290 290 289 287 287 286 287 287 286 289 290 288 288 289 288 293 297 300 301 300 298 293 290 288 286 283 279 271 265 265 269
289 290 291 292 291 294 293 289 287 286 288 290 292 289 289 291 292 291 290 289 288 287 287 286 286 289 291 294 296 298 300 301 300 295 292 289 290 287 282 273 263 264 267
286 287 289 292 292 291 289 287 287 285 285 288 292 291 290 292 292 291 291 290 286 284 283 284 288 289 288 289 292 293 295 295 297 295 294 290 289 289 286 280 271 268 269
284 285 286 289 292 291 291 290 287 287 288 289 289 288 288 289 289 289 289 288 284 285 286 287 288 288 287 288 289 289 290 292 293 294 293 290 289 287 285 282 279 274 271
286 287 287 288 289 288 289 289 286 286 288 290 290 289 289 290 290 289 287 286 285 285 286 288 287 288 289 288 289 288 289 291 291 289 290 290 288 286 283 281 279 277 274
286 290 286 287 287 285 284 286 283 282 285 289 291 292 294 293 292 290 288 288 286 285 285 288 288 287 287 286 287 287 287 289 289 289 288 288 288 288 284 282 281 279 277
285 288 292 293 291 287 284 285 283 283 287 289 292 291 293 295 293 290 289 288 287 285 285 286 285 285 285 286 287 287 288 287 288 289 288 288 286 287 286 284 281 280 280
285 286 288 292 292 288 286 284 284 284 286 289 290 291 292 294 293 292 292 292 290 287 286 285 285 285 288 287 287 287 289 290 290 290 290 288 287 286 286 284 281 281 282
284 285 285 288 288 288 288 286 286 283 286 288 289 290 290 294 294 291 292 293 293 291 289 286 286 286 289 289 287 288 288 289 289 289 289 289 290 289 287 286 283 282 280
281 282 283 285 286 285 286 283 286 286 287 288 289 291 290 291 292 293 293 293 292 292 291 289 287 287 288 288 289 288 287 287 288 288 287 288 290 290 289 286 284 283 282
284 282 283 283 285 284 283 283 285 289 288 287 287 290 292 291 292 293 292 292 292 291 291 291 290 288 289 288 288 287 287 287 287 287 287 288 289 289 288 285 283 283 282
284 284 284 283 283 283 283 283 285 286 287 288 287 287 290 292 292 292 288 288 290 291 291 290 290 289 289 290 291 289 288 287 287 288 288 288 288 289 287 285 285 284 282
283 285 283 282 283 282 281 284 285 283 285 289 288 288 290 289 290 290 289 288 288 290 291 290 290 290 290 289 288 288 287 286 286 288 289 290 289 288 286 286 285 284 281
281 281 280 280 282 283 282 283 286 284 285 286 287 288 287 286 286 288 289 290 290 291 291 291 291 290 291 290 288 288 287 286 287 287 288 290 291 289 287 285 286 285 282
279 278 278 279 280 281 282 283 284 283 284 286 287 286 287 286 286 286 288 290 290 291 291 292 292 290 290 289 288 286 285 285 286 286 287 288 289 288 288 287 286 284 281
276 276 277 278 278 279 281 282 281 282 284 286 285 284 284 286 286 285 286 287 288 289 291 293 293 290 289 289 288 287 287 288 287 287 287 287 288 289 288 288 287 285 281
275 276 276 277 277 278 281 280 280 283 285 285 283 283 282 283 284 285 285 284 285 285 287 292 292 292 291 291 289 289 289 289 289 289 289 288 287 288 289 287 286 284 283
276 278 277 279 278 278 280 279 281 284 284 284 284 283 282 283 282 283 283 282 282 283 286 289 291 291 292 292 292 292 291 290 289 288 289 289 290 290 286 284 283 283 282
278 279 279 279 279 279 279 278 281 282 282 283 284 283 282 283 281 281 281 281 281 281 284 286 287 290 292 292 291 292 293 291 287 285 286 289 291 290 287 286 284 283 283
277 278 279 278 278 279 278 278 280 281 282 282 282 282 282 283 282 281 279 280 280 280 281 282 283 287 290 292 291 290 291 291 290 289 288 288 289 290 289 287 287 285 284
277 278 279 279 278 278 279 280 280 279 279 281 280 280 280 280 280 278 279 279 279 279 279 279 280 284 287 290 290 290 290 290 290 290 289 288 288 289 288 288 287 285 285
278 278 279 279 279 279 279 279 280 280 279 279 280 281 280 279 279 278 278 277 278 278 279 278 279 282 284 286 289 290 291 290 290 290 290 290 288 288 287 286 285 285 286
277 278 279 280 279 278 278 279 279 279 278 278 280 281 280 279 279 279 277 278 279 280 280 279 280 284 285 285 286 287 289 289 289 289 289 289 288 287 287 286 285 285 285